Regional Weather Roundup
Issued by NWS

Home | Current Version | Previous Version | Text Only | Print | Product List | Glossary On
Versions: 1 2 3 4 5 6 7 8 9 10 11 12 13 14 15 16 17 18 19 20 21 22 23 24 25 26 27 28 29 30 31 32 33 34 35 36 37 38 39 40 41 42 43 44 45 46 47 48 49 50
000
ASUS44 KFWD 260815
RWRTX
NORTH TEXAS HOURLY WEATHER ROUNDUP
NATIONAL WEATHER SERVICE FORT WORTH TX
300 AM CDT SUN APR 26 2015

NOTE: "FAIR" INDICATES FEW OR NO CLOUDS BELOW 12,000 FEET WITH NO
SIGNIFICANT WEATHER AND/OR OBSTRUCTIONS TO VISIBILITY.

TXZ118-119-260900-
DALLAS/FORT WORTH METROPLEX

CITY           SKY/WX    TMP DP  RH WIND       PRES   REMARKS
DFW AIRPORT    CLEAR     62  53  72 S6        29.65F
DALLAS LOVE    CLEAR     63  53  70 SE6       29.66F
FTW MEACHAM    CLEAR     66  52  60 CALM      29.65F
DAL-EXECUTIVE  CLEAR     69  49  48 S6        29.66F
FTW-ALLIANCE   CLEAR     61  51  70 CALM      29.65F
FTW-NAS-JRB      N/A    N/A N/A N/A MISG        N/A
FTW-SPINKS     CLEAR     55  52  90 CALM      29.67F
ARLINGTON      CLEAR     66  52  60 S7        29.66F
GRAND PRAIRIE  CLEAR     64  55  70 S6        29.67F
ADDISON        CLEAR     65  53  65 SE3       29.67F
MESQUITE       CLEAR     60  57  91 S5        29.67S
LANCASTER      CLEAR     59  52  76 CALM      29.67F
$$

TXZ091>094-102>105-117-120-121-131>134-260900-
NORTH CENTRAL TEXAS

CITY           SKY/WX    TMP DP  RH WIND       PRES   REMARKS
SHRMAN/DENISON CLEAR     63  55  75 S9        29.65F
GAINESVILLE    CLEAR     60  53  76 CALM      29.67F
BOWIE          CLEAR     56  52  84 SE3       29.66S
BRIDGEPORT     CLEAR     53  53 100 CALM      29.67F
DECATUR        CLEAR     69  46  43 S10       29.66F
DENTON           N/A     62  53  72 S3        29.65F
MCKINNEY       CLEAR     59  56  89 CALM      29.66F
GREENVILLE     CLEAR     59  55  88 CALM      29.67S
ROCKWALL       CLEAR     63  56  77 S9        29.66S
TERRELL        CLEAR     64  57  78 S6        29.67F
WAXAHACHIE     CLEAR     64  53  67 CALM      29.69F
CLEBURNE       CLEAR     63  54  72 S6        29.69F
GRANBURY         N/A     62  54  75 CALM      29.67F
$$

TXZ083>090-098>101-113>116-127>130-139>142-154-155-260900-
WESTERN NORTH TEXAS

CITY           SKY/WX    TMP DP  RH WIND       PRES   REMARKS
WICHITA FALLS  CLEAR     60  49  66 SW10      29.63F
WF-KICKAPOO    CLEAR     58  51  76 S5        29.64F
VERNON         CLEAR     57  45  64 SW8       29.64F
ABILENE        CLEAR     60  41  49 S10       29.69F
ABILENE-DYESS  CLEAR     56  44  64 SW3       29.68F
BRECKENRIDGE   CLEAR     62  46  54 S5        29.66F
GRAHAM         CLEAR     56  50  80 E3        29.65F
MINERAL WELLS  CLEAR     56  52  86 SE7       29.65F
STEPHENVILLE   CLEAR     58  51  75 S3        29.71F
COMANCHE       CLEAR     62  47  56 S7        29.70S
BROWNWOOD      CLEAR     50  50 100 CALM      29.70F
COLEMAN        CLEAR     56  49  74 SW5       29.71S
BRADY          CLEAR     61  46  59 SW3       29.72F
$$

TXZ143>147-156>162-174-175-260900-
CENTRAL TEXAS

CITY           SKY/WX    TMP DP  RH WIND       PRES   REMARKS
WACO           CLEAR     66  61  84 S6        29.68F
WACO-MCGREGOR  CLEAR     63  55  77 CALM      29.69F
HILLSBORO      CLEAR     65  57  75 S7        29.68F
CORSICANA      PTCLDY    66  62  87 S7        29.69F
MEXIA          CLEAR     65  64  95 SE12      29.69F
HEARNE         CLEAR     69  69  98 SE6       29.69F FOG
CAMERON        MOCLDY    71  69  96 S9        29.69S
TEMPLE         CLEAR     66  61  82 S12       29.68F
KILLEEN        CLEAR     63  58  84 SW5       29.69S
KILLEEN-SKYLRK CLEAR     61  54  77 CALM      29.67F
FORT HOOD      CLEAR     66  59  79 SE2       29.68F
GATESVILLE     CLEAR     63  55  77 CALM      29.71S
HAMILTON       CLEAR     63  49  60 S7        29.70F
LAMPASAS       CLEAR     64  56  76 W3        29.70S
$$

TXZ095>097-106>112-122>126-135>138-148>153-164>167-260900-
EAST TEXAS

CITY           SKY/WX    TMP DP  RH WIND       PRES   REMARKS
PARIS          CLEAR     57  52  82 MISG      29.67F
SULPHUR SPRNGS CLEAR     61  56  82 SW3       29.68F
MOUNT PLEASANT CLEAR     59  59 100 CALM      29.68F
GILMER         CLEAR     63  56  78 S5        29.68F
TYLER          CLEAR     63  59  87 S6        29.69F
LONGVIEW       CLEAR     65  58  78 S7        29.68F
MARSHALL       CLEAR     61  57  88 CALM      29.71S
ATHENS         CLEAR     59  57  94 CALM      29.69S
PALESTINE      CLEAR     66  62  87 SE3       29.71F
JACKSONVILLE   CLEAR     69  66  90 S6        29.73F
HENDERSON      CLEAR     60  59  97 CALM      29.71F
NACOGDOCHES    CLEAR     66  64  94 CALM      29.72S
LUFKIN         CLOUDY    70  66  87 CALM      29.71F FOG
$$

SUPPLEMENTAL OBSERVATIONS (CENTRAL)

CITY           SKY/WX    TMP DP  RH WIND       PRES   REMARKS
LAKE TEXOMA      N/A     63  54  72 SE1         N/A
PAT MAYSE LAKE   N/A     61  59  94 SE2         N/A
LAKE LIMESTONE   N/A     68  66  94 SE1         N/A
MCGREGOR         N/A     64  61  88 SW5         N/A
TEMPLE           N/A     66  63  88 S5          N/A
$$

SUPPLEMENTAL OBSERVATIONS (WEST)

CITY           SKY/WX    TMP DP  RH WIND       PRES   REMARKS
MILLERS CREEK    N/A     54  48  82 SW6         N/A
POSSUM KINGDOM   N/A     63  45  51 S6          N/A
GRANBURY         N/A     63  54  72 E1          N/A
COMANCHE         N/A     63  45  51 S8          N/A
HAMBY            N/A     52  41  66 S2          N/A
IVIE RESERVOIR   N/A     59  39  47 CALM        N/A
COLORADO BEND    N/A     64  52  63 SW2         N/A
$$

SUPPLEMENTAL OBSERVATIONS (EAST)

CITY           SKY/WX    TMP DP  RH WIND       PRES   REMARKS
CLARKSVILLE      N/A     63  59  88 CALM        N/A
TEXARKANA        N/A     54  52  94 CALM        N/A
LINDEN           N/A     57  52  82 CALM        N/A
CADDO LAKE       N/A     55  54  94 CALM        N/A
GILMER           N/A     59  55  88 S1          N/A
HENDERSON        N/A     61  57  88 SE3         N/A
LUFKIN           N/A     66  64  94 MISG        N/A
N SABINE NF      N/A     66  63  88 MISG        N/A
S SABINE NF      N/A     64  63  94 CALM        N/A
$$

SUPPLEMENTAL OBSERVATIONS ARE A COLLECTION OF AUTOMATED INSTRUMENTS
THAT ARE MAINTAINED BY A VARIETY OF FEDERAL AND STATE AGENCIES.
CERTAIN ELEMENTS...SUCH AS HUMIDITY VALUES AND SUSTAINED WIND
SPEEDS...MAY BE APPROXIMATED.



USA.gov is the U.S. government's official web portal to all federal, state and local government web resources and services.